RH
70 72 70 72 72 72 75 71 39 30 29 27 13 9 10 9 12 13 17 14 13 13 14 15 15 14 13 13 12 12 12 12 12
68 70 72 75 78 78 78 79 77 54 35 30 26 11 10 10 11 15 18 18 16 13 12 12 12 13 14 14 14 13 12 12 12
65 74 74 75 75 80 78 78 83 76 59 39 29 24 11 11 13 15 17 18 20 20 20 18 16 14 12 12 11 12 13 13 13
63 67 77 80 78 75 73 72 80 82 75 64 44 28 21 12 13 15 16 16 17 19 21 21 21 20 20 19 18 16 15 14 14
69 74 72 80 84 82 77 76 80 83 82 78 73 42 29 22 15 13 14 15 15 17 18 19 20 21 21 21 21 20 20 18 17
44 57 75 82 82 82 82 81 83 85 84 81 78 65 42 30 27 19 14 13 14 14 15 16 16 16 16 17 17 17 17 18 18
20 41 50 76 85 91 87 84 83 85 84 84 83 79 59 44 34 31 27 19 15 14 14 14 15 15 15 14 15 15 14 14 14
14 18 32 47 74 84 88 90 89 87 88 86 82 84 82 61 48 42 37 33 30 27 26 25 26 27 24 24 22 20 19 18 17
8 10 17 31 45 64 78 76 82 88 90 90 84 78 83 88 75 63 53 44 37 35 35 36 36 37 45 53 43 34 33 29 27
8 8 8 14 31 52 61 64 65 70 74 83 86 72 70 70 79 81 76 66 58 51 46 45 50 53 56 62 69 67 66 53 49
12 7 8 8 11 39 57 60 63 72 77 82 85 85 75 71 72 70 76 78 79 78 74 74 77 81 82 82 83 84 85 84 81
24 19 12 8 9 20 76 80 96 78 89 87 86 87 86 83 76 77 81 79 81 85 87 81 83 84 88 89 89 92 94 90 89
26 29 25 16 10 14 63 99 82 83 93 93 94 93 91 88 84 86 87 86 85 80 83 86 88 89 89 85 87 81 71 67 62
14 13 36 31 18 12 19 65 71 99 92 89 98 89 85 87 94 90 98 94 93 97 96 90 86 84 88 77 57 43 38 38 41
24 22 36 51 36 18 13 38 74 91 81 100 96 89 96 100 100 95 100 94 94 89 80 69 62 54 44 39 38 36 34 31 28
28 33 44 63 61 44 18 27 79 64 92 94 100 100 98 100 100 96 97 94 96 91 60 48 45 44 44 44 43 43 41 39 37
54 62 69 74 77 62 37 17 53 85 92 94 100 99 93 99 100 100 93 84 72 66 53 50 50 49 49 48 49 49 47 44 40
80 90 100 100 95 74 56 27 31 40 66 78 95 100 95 100 100 100 97 98 94 55 54 54 53 54 54 52 51 49 48 44 37
87 96 94 96 90 71 53 34 22 20 42 77 99 100 99 100 100 100 97 74 62 60 59 67 75 64 59 54 48 44 36 33 26
89 82 94 90 77 68 48 33 30 24 24 45 61 97 93 100 100 99 100 97 71 65 78 97 93 71 61 56 53 49 34 27 25
Wind_Speed
17 16 14 13 13 11 11 11 10 10 9 9 9 10 10 11 11 10 9 8 7 6 7 6 6 6 6 5 5 5 5 5 6
20 20 18 16 15 14 13 13 13 12 12 11 10 9 9 10 11 11 11 10 9 8 7 8 7 7 7 7 7 6 6 7 7
23 22 21 20 19 18 17 16 16 15 14 13 12 11 10 10 11 11 12 12 11 11 10 10 9 8 8 8 8 8 8 8 8
26 26 24 23 22 22 21 20 19 17 16 15 13 13 12 12 12 12 13 13 13 12 12 12 12 11 11 10 10 10 10 10 10
28 29 29 27 25 25 24 23 22 21 19 18 16 15 14 13 13 13 13 13 13 14 14 14 13 13 13 12 12 12 11 11 11
34 34 32 31 30 28 27 26 25 24 22 21 19 18 17 16 15 14 13 14 14 14 14 14 14 14 13 13 13 13 13 13 13
38 37 36 35 33 32 31 30 29 28 26 23 23 21 20 20 18 17 15 14 14 14 14 13 13 13 13 12 12 12 13 13 13
41 40 39 41 38 37 34 32 31 31 29 27 26 25 23 23 22 20 19 18 17 16 15 15 14 13 13 13 13 13 13 13 13
43 44 43 42 45 43 39 36 34 33 31 30 29 29 27 25 24 23 22 21 20 20 19 18 18 17 16 16 15 16 15 16 15
46 47 47 45 45 47 47 43 39 38 37 35 33 32 31 29 28 26 25 24 23 23 22 21 20 19 20 20 19 19 19 19 19
47 48 49 49 45 42 46 49 45 41 40 39 37 35 34 33 32 31 29 27 26 25 25 24 24 22 22 23 23 22 22 22 23
47 50 50 51 49 45 46 44 43 45 42 41 40 37 37 38 36 32 30 29 29 28 26 26 26 25 23 23 25 24 23 23 24
48 52 53 52 50 50 48 40 43 44 41 42 43 40 38 39 37 36 35 31 29 28 27 27 27 26 26 26 25 26 27 27 28
45 49 53 53 52 50 51 51 45 44 39 43 43 45 43 42 44 39 34 26 27 29 28 25 25 26 29 29 29 29 29 29 30
42 45 50 51 52 49 50 48 47 43 51 29 39 43 42 33 32 30 27 29 34 26 28 29 28 28 29 28 28 28 28 29 29
32 38 42 46 46 46 44 46 42 53 44 37 26 54 46 31 37 33 31 30 38 32 31 28 26 26 27 28 28 29 30 31 32
26 26 28 33 37 39 38 43 47 43 48 50 29 32 36 35 35 29 29 27 28 31 31 29 29 27 29 31 32 33 35 37 38
22 17 17 19 24 27 29 33 40 44 43 44 42 24 29 27 30 30 31 34 30 32 31 30 29 29 33 35 38 39 40 41 42
22 16 14 9 14 18 21 23 28 37 42 44 21 22 27 31 33 35 26 31 33 30 29 29 31 33 38 40 41 42 43 42 41
17 9 7 3 6 10 13 15 19 28 33 33 36 40 41 17 21 24 24 30 31 32 30 35 31 38 40 42 42 41 41 41 39
Wind_Direction
277 272 267 266 270 271 270 278 277 277 279 282 279 270 257 246 240 233 228 227 224 220 226 229 225 222 226 233 242 257 268 268 269
268 269 268 264 262 263 263 267 273 277 276 277 280 275 262 249 238 229 224 222 225 229 235 237 236 236 237 241 247 248 254 263 269
261 261 258 258 259 260 261 259 260 266 268 269 272 271 264 252 242 237 234 229 225 226 230 235 241 242 244 247 252 258 263 266 268
258 258 259 255 253 253 256 259 258 258 260 262 264 267 266 258 249 243 242 241 238 237 236 236 237 240 243 246 250 254 258 261 264
262 257 255 254 252 250 249 251 255 255 256 257 258 254 255 259 257 252 247 244 245 245 246 247 247 246 246 248 251 255 259 264 267
262 260 256 253 252 250 249 247 248 251 253 255 256 251 248 245 248 251 251 251 247 246 246 249 252 252 253 255 258 260 261 263 268
261 260 256 254 252 250 250 249 248 248 250 250 252 250 247 245 242 243 246 246 247 249 250 249 251 256 260 263 265 267 270 271 272
261 259 259 255 252 251 249 249 249 251 252 250 250 250 248 246 244 242 242 244 245 246 249 251 254 257 265 271 275 277 279 281 282
262 257 253 252 251 249 251 249 250 250 249 248 248 247 246 247 246 246 245 244 244 246 249 254 260 263 261 264 273 278 281 282 283
266 264 260 255 248 246 246 247 249 249 251 249 245 246 246 246 246 247 245 246 246 247 249 252 255 259 266 268 265 267 273 278 281
268 265 262 258 253 248 248 246 245 246 247 247 245 243 243 244 246 244 243 243 244 247 250 252 256 259 261 267 269 271 273 275 277
269 264 260 258 253 244 249 248 238 243 243 246 245 244 243 242 243 242 245 244 246 248 249 252 256 258 260 264 268 271 273 276 277
271 266 260 255 251 246 241 245 245 242 244 246 246 245 244 243 242 241 241 243 243 246 247 251 254 256 258 261 264 270 275 277 278
274 268 260 255 251 244 241 242 246 246 237 238 239 243 241 243 239 230 229 234 245 246 247 248 251 250 254 261 268 272 273 274 274
275 270 259 251 248 246 240 238 233 240 239 256 243 242 231 234 231 233 230 227 234 244 251 252 253 256 261 266 270 273 274 275 275
286 273 266 255 246 244 242 237 238 237 237 243 262 246 258 232 225 233 237 232 239 237 254 254 257 259 262 267 271 273 274 276 277
298 281 270 259 250 245 244 237 234 235 238 247 256 268 247 235 225 227 230 233 234 241 246 250 254 259 263 265 267 272 275 275 275
330 309 275 259 240 238 242 241 237 238 238 250 245 268 253 225 222 226 227 238 234 237 242 249 255 262 268 273 274 275 275 275 276
325 313 271 251 234 231 234 237 244 239 239 240 255 266 266 248 239 245 230 223 229 235 239 249 258 265 270 274 280 280 279 278 278
329 341 320 253 222 219 224 230 239 238 246 254 254 261 265 232 229 234 225 222 223 225 236 249 259 264 272 274 277 279 278 273 271